Time,TemperatureF,DewpointF,PressureIn,WindDirection,WindDirectionDegrees,WindSpeedMPH,WindSpeedGustMPH,Humidity,HourlyPrecipIn,Conditions,Clouds,dailyrainin,SolarRadiationWatts/m^2,SoftwareType,DateUTC
2013-04-05 00:03:00,42.0,18.0,-100.00,SW,233,4.0,11.0,37,0.00,,,0.00,0.000000,,2013-04-05 04:03:00,
2013-04-05 00:33:00,34.0,23.0,-100.00,NNE,32,2.0,9.0,63,0.00,,,0.00,0.000000,,2013-04-05 04:33:00,
2013-04-05 00:42:00,34.0,23.0,-100.00,NNE,32,2.0,9.0,63,0.00,,,0.00,0.000000,,2013-04-05 04:42:00,
2013-04-05 00:52:00,34.0,23.0,-100.00,NNE,32,2.0,9.0,63,0.00,,,0.00,0.000000,,2013-04-05 04:52:00,
2013-04-05 01:02:00,34.0,23.0,-100.00,NNE,32,2.0,9.0,63,0.00,,,0.00,0.000000,,2013-04-05 05:02:00,
2013-04-05 01:32:00,31.0,21.0,-100.00,North,8,2.0,4.0,65,0.00,,,0.00,0.000000,,2013-04-05 05:32:00,
2013-04-05 01:42:00,31.0,21.0,-100.00,North,8,2.0,4.0,65,0.00,,,0.00,0.000000,,2013-04-05 05:42:00,
2013-04-05 01:53:00,31.0,21.0,-100.00,North,8,2.0,4.0,65,0.00,,,0.00,0.000000,,2013-04-05 05:53:00,
2013-04-05 02:02:00,31.0,21.0,-100.00,North,8,2.0,4.0,65,0.00,,,0.00,0.000000,,2013-04-05 06:02:00,
2013-04-05 03:32:00,37.0,18.0,-100.00,SW,224,4.0,7.0,46,-99.99,,,0.00,0.000000,,2013-04-05 07:32:00,
2013-04-05 03:42:00,37.0,18.0,-100.00,SW,224,4.0,7.0,46,-99.99,,,0.00,0.000000,,2013-04-05 07:42:00,
2013-04-05 03:53:00,37.0,18.0,-100.00,SW,224,4.0,7.0,46,-99.99,,,0.00,0.000000,,2013-04-05 07:53:00,
2013-04-05 04:03:00,37.0,18.0,-100.00,SW,224,4.0,7.0,46,-99.99,,,0.00,0.000000,,2013-04-05 08:03:00,
2013-04-05 04:33:00,38.0,20.0,-100.00,SW,218,5.0,9.0,47,0.00,,,0.00,0.000000,,2013-04-05 08:33:00,
2013-04-05 04:43:00,38.0,20.0,-100.00,SW,218,5.0,9.0,47,0.00,,,0.00,0.000000,,2013-04-05 08:43:00,
2013-04-05 04:52:00,38.0,20.0,-100.00,SW,218,5.0,9.0,47,0.00,,,0.00,0.000000,,2013-04-05 08:52:00,
2013-04-05 05:02:00,38.0,20.0,-100.00,SW,218,5.0,9.0,47,0.00,,,0.00,0.000000,,2013-04-05 09:02:00,
2013-04-05 06:33:00,37.0,21.0,-100.00,WSW,243,4.0,7.0,53,-99.99,,,0.00,0.000000,,2013-04-05 10:33:00,
2013-04-05 06:43:00,37.0,21.0,-100.00,WSW,243,4.0,7.0,53,-99.99,,,0.00,0.000000,,2013-04-05 10:43:00,
2013-04-05 06:53:00,37.0,21.0,-100.00,WSW,243,4.0,7.0,53,-99.99,,,0.00,0.000000,,2013-04-05 10:53:00,
2013-04-05 07:03:00,37.0,21.0,-100.00,WSW,243,4.0,7.0,53,-99.99,,,0.00,0.000000,,2013-04-05 11:03:00,
2013-04-05 07:33:00,37.0,21.0,-100.00,WSW,238,5.0,11.0,52,0.00,,,0.00,8.000000,,2013-04-05 11:33:00,
2013-04-05 07:42:00,37.0,21.0,-100.00,WSW,238,5.0,11.0,52,0.00,,,0.00,8.000000,,2013-04-05 11:42:00,
2013-04-05 07:52:00,37.0,21.0,-100.00,WSW,238,5.0,11.0,52,0.00,,,0.00,8.000000,,2013-04-05 11:52:00,
2013-04-05 08:02:00,37.0,21.0,-100.00,WSW,238,5.0,11.0,52,0.00,,,0.00,8.000000,,2013-04-05 12:02:00,
2013-04-05 08:32:00,38.0,22.0,-100.00,SW,222,7.0,15.0,52,0.00,,,0.00,40.000000,,2013-04-05 12:32:00,
2013-04-05 08:42:00,38.0,22.0,-100.00,SW,222,7.0,15.0,52,0.00,,,0.00,40.000000,,2013-04-05 12:42:00,
2013-04-05 08:52:00,38.0,22.0,-100.00,SW,222,7.0,15.0,52,0.00,,,0.00,40.000000,,2013-04-05 12:52:00,
2013-04-05 09:02:00,38.0,22.0,-100.00,SW,222,7.0,15.0,52,0.00,,,0.00,40.000000,,2013-04-05 13:02:00,
2013-04-05 09:32:00,42.0,22.0,-100.00,SW,218,7.0,16.0,45,0.00,,,0.00,119.000000,,2013-04-05 13:32:00,
2013-04-05 09:43:00,42.0,22.0,-100.00,SW,218,7.0,16.0,45,0.00,,,0.00,119.000000,,2013-04-05 13:43:00,
2013-04-05 09:53:00,42.0,22.0,-100.00,SW,218,7.0,16.0,45,0.00,,,0.00,119.000000,,2013-04-05 13:53:00,
2013-04-05 10:03:00,42.0,22.0,-100.00,SW,218,7.0,16.0,45,0.00,,,0.00,119.000000,,2013-04-05 14:03:00,
2013-04-05 10:37:00,47.0,23.0,-100.00,SSW,199,4.0,12.0,38,0.00,,,0.00,276.000000,,2013-04-05 14:37:00,
2013-04-05 10:43:00,47.0,23.0,-100.00,SSW,199,4.0,12.0,38,0.00,,,0.00,276.000000,,2013-04-05 14:43:00,
2013-04-05 10:54:00,47.0,23.0,-100.00,SSW,199,4.0,12.0,38,0.00,,,0.00,276.000000,,2013-04-05 14:54:00,
2013-04-05 11:02:00,47.0,23.0,-100.00,SSW,199,4.0,12.0,38,0.00,,,0.00,276.000000,,2013-04-05 15:02:00,
2013-04-05 11:34:00,51.0,21.0,-100.00,SSW,206,8.0,14.0,31,0.00,,,0.00,614.000000,,2013-04-05 15:34:00,
2013-04-05 11:43:00,51.0,21.0,-100.00,SSW,206,8.0,14.0,31,0.00,,,0.00,614.000000,,2013-04-05 15:43:00,
2013-04-05 11:54:00,51.0,21.0,-100.00,SSW,206,8.0,14.0,31,0.00,,,0.00,614.000000,,2013-04-05 15:54:00,
2013-04-05 12:03:00,51.0,21.0,-100.00,SSW,206,8.0,14.0,31,0.00,,,0.00,614.000000,,2013-04-05 16:03:00,
2013-04-05 12:33:00,52.0,18.0,-100.00,SW,226,9.0,16.0,26,0.00,,,0.00,656.000000,,2013-04-05 16:33:00,
2013-04-05 12:43:00,52.0,18.0,-100.00,SW,226,9.0,16.0,26,0.00,,,0.00,656.000000,,2013-04-05 16:43:00,
2013-04-05 12:53:00,52.0,18.0,-100.00,SW,226,9.0,16.0,26,0.00,,,0.00,656.000000,,2013-04-05 16:53:00,
2013-04-05 13:03:00,52.0,18.0,-100.00,SW,226,9.0,16.0,26,0.00,,,0.00,656.000000,,2013-04-05 17:03:00,
2013-04-05 13:33:00,54.0,18.0,-100.00,SW,228,6.0,13.0,24,0.00,,,0.00,582.000000,,2013-04-05 17:33:00,
2013-04-05 13:46:00,54.0,18.0,-100.00,SW,228,6.0,13.0,24,0.00,,,0.00,582.000000,,2013-04-05 17:46:00,
2013-04-05 13:53:00,54.0,18.0,-100.00,SW,228,6.0,13.0,24,0.00,,,0.00,582.000000,,2013-04-05 17:53:00,
2013-04-05 14:02:00,54.0,18.0,-100.00,SW,228,6.0,13.0,24,0.00,,,0.00,582.000000,,2013-04-05 18:02:00,
2013-04-05 14:43:00,58.0,21.0,-100.00,SW,233,5.0,18.0,24,0.00,,,0.00,607.000000,,2013-04-05 18:43:00,
2013-04-05 14:53:00,58.0,21.0,-100.00,SW,233,5.0,18.0,24,0.00,,,0.00,607.000000,,2013-04-05 18:53:00,
2013-04-05 15:02:00,58.0,21.0,-100.00,SW,233,5.0,18.0,24,0.00,,,0.00,607.000000,,2013-04-05 19:02:00,
2013-04-05 15:33:00,53.0,20.0,-100.00,WNW,300,4.0,13.0,27,0.00,,,0.00,599.000000,,2013-04-05 19:33:00,
2013-04-05 15:43:00,53.0,20.0,-100.00,WNW,300,4.0,13.0,27,0.00,,,0.00,599.000000,,2013-04-05 19:43:00,
2013-04-05 15:53:00,53.0,20.0,-100.00,WNW,300,4.0,13.0,27,0.00,,,0.00,599.000000,,2013-04-05 19:53:00,
2013-04-05 16:02:00,53.0,20.0,-100.00,WNW,300,4.0,13.0,27,0.00,,,0.00,599.000000,,2013-04-05 20:02:00,
2013-04-05 16:33:00,53.0,20.0,-100.00,NE,46,6.0,15.0,27,0.00,,,0.00,586.000000,,2013-04-05 20:33:00,
2013-04-05 16:43:00,53.0,20.0,-100.00,NE,46,6.0,15.0,27,0.00,,,0.00,586.000000,,2013-04-05 20:43:00,
2013-04-05 16:53:00,53.0,20.0,-100.00,NE,46,6.0,15.0,27,0.00,,,0.00,586.000000,,2013-04-05 20:53:00,
2013-04-05 17:02:00,53.0,20.0,-100.00,NE,46,6.0,15.0,27,0.00,,,0.00,586.000000,,2013-04-05 21:02:00,
2013-04-05 17:34:00,49.0,20.0,-100.00,NNE,19,6.0,16.0,32,0.00,,,0.00,368.000000,,2013-04-05 21:34:00,
2013-04-05 17:44:00,49.0,20.0,-100.00,NNE,19,6.0,16.0,32,0.00,,,0.00,368.000000,,2013-04-05 21:44:00,
2013-04-05 17:55:00,49.0,20.0,-100.00,NNE,19,6.0,16.0,32,0.00,,,0.00,368.000000,,2013-04-05 21:55:00,
2013-04-05 18:03:00,49.0,20.0,-100.00,NNE,19,6.0,16.0,32,0.00,,,0.00,368.000000,,2013-04-05 22:03:00,
2013-04-05 18:34:00,45.0,20.0,-100.00,NE,37,4.0,19.0,36,0.00,,,0.00,78.000000,,2013-04-05 22:34:00,
2013-04-05 18:44:00,45.0,20.0,-100.00,NE,37,4.0,19.0,36,0.00,,,0.00,78.000000,,2013-04-05 22:44:00,
2013-04-05 18:53:00,45.0,20.0,-100.00,NE,37,4.0,19.0,36,0.00,,,0.00,78.000000,,2013-04-05 22:53:00,
2013-04-05 19:03:00,45.0,20.0,-100.00,NE,37,4.0,19.0,36,0.00,,,0.00,78.000000,,2013-04-05 23:03:00,
2013-04-05 19:33:00,41.0,23.0,-100.00,NE,38,4.0,11.0,49,0.00,,,0.00,28.000000,,2013-04-05 23:33:00,
2013-04-05 19:43:00,41.0,23.0,-100.00,NE,38,4.0,11.0,49,0.00,,,0.00,28.000000,,2013-04-05 23:43:00,
2013-04-05 19:53:00,41.0,23.0,-100.00,NE,38,4.0,11.0,49,0.00,,,0.00,28.000000,,2013-04-05 23:53:00,
2013-04-05 20:03:00,41.0,23.0,-100.00,NE,38,4.0,11.0,49,0.00,,,0.00,28.000000,,2013-04-06 00:03:00,
2013-04-05 20:33:00,39.0,22.0,-100.00,NE,39,4.0,12.0,50,0.00,,,0.00,1.000000,,2013-04-06 00:33:00,
2013-04-05 20:43:00,39.0,22.0,-100.00,NE,39,4.0,12.0,50,0.00,,,0.00,1.000000,,2013-04-06 00:43:00,
2013-04-05 20:52:00,39.0,22.0,-100.00,NE,39,4.0,12.0,50,0.00,,,0.00,1.000000,,2013-04-06 00:52:00,
2013-04-05 21:02:00,39.0,22.0,-100.00,NE,39,4.0,12.0,50,0.00,,,0.00,1.000000,,2013-04-06 01:02:00,
2013-04-05 21:33:00,38.0,21.0,-100.00,NE,39,3.0,12.0,50,0.00,,,0.00,0.000000,,2013-04-06 01:33:00,
2013-04-05 21:43:00,38.0,21.0,-100.00,NE,39,3.0,12.0,50,0.00,,,0.00,0.000000,,2013-04-06 01:43:00,
2013-04-05 21:53:00,38.0,21.0,-100.00,NE,39,3.0,12.0,50,0.00,,,0.00,0.000000,,2013-04-06 01:53:00,
2013-04-05 22:02:00,38.0,21.0,-100.00,NE,39,3.0,12.0,50,0.00,,,0.00,0.000000,,2013-04-06 02:02:00,
2013-04-05 22:33:00,36.0,17.0,-100.00,NE,42,5.0,12.0,45,0.00,,,0.00,0.000000,,2013-04-06 02:33:00,
2013-04-05 22:43:00,36.0,17.0,-100.00,NE,42,5.0,12.0,45,0.00,,,0.00,0.000000,,2013-04-06 02:43:00,
2013-04-05 22:53:00,36.0,17.0,-100.00,NE,42,5.0,12.0,45,0.00,,,0.00,0.000000,,2013-04-06 02:53:00,
2013-04-05 23:03:00,36.0,17.0,-100.00,NE,42,5.0,12.0,45,0.00,,,0.00,0.000000,,2013-04-06 03:03:00,
2013-04-05 23:34:00,34.0,16.0,-100.00,South,190,3.0,12.0,47,0.00,,,0.00,0.000000,,2013-04-06 03:34:00,
2013-04-05 23:43:00,34.0,16.0,-100.00,South,190,3.0,12.0,47,0.00,,,0.00,0.000000,,2013-04-06 03:43:00,
2013-04-05 23:55:00,34.0,16.0,-100.00,South,190,3.0,12.0,47,0.00,,,0.00,0.000000,,2013-04-06 03:55:00,